Weather History for Millinocket, ME

Change the Weather History Date:

Friday, September 20, 2013

  Actual Average Record
Temperature  
Mean Temperature 63 °F 56 °F  
Max Temperature 76 °F 66 °F 84 °F (1946)
Min Temperature 49 °F 45 °F 25 °F (1929)
Degree Days  
Heating Degree Days 2 10  
Month to date heating degree days 109 129  
Since 1 July heating degree days 154 208  
Cooling Degree Days 0 0  
Month to date cooling degree days 28 15  
Year to date cooling degree days 380 266  
Growing Degree Days 10 (Base 50)    
Moisture  
Dew Point 53 °F    
Average Humidity 73    
Maximum Humidity 93    
Minimum Humidity 53    
Precipitation  
Precipitation 0.00 in 0.13 in 1.38 in (1918)
Month to date precipitation 3.74 2.34  
Year to date precipitation 29.23 29.27  
Sea Level Pressure  
Sea Level Pressure 30.07 in    
Wind  
Wind Speed 2 mph (ESE)    
Max Wind Speed 9 mph    
Max Gust Speed 18 mph    
Visibility 10 miles    
Events      
T = Trace of Precipitation, MM = Missing Value Source: NWS Daily Summary

Daily Weather History Graph

Daily Weather History Graph

Search for Another Location

Airport:

Trip Planner

Search our weather history database for the weather conditions in past years. The results will help you decide how hot, cold, wet, or windy it might be!

Date:

Astronomy

Sep. 20, 2013 Rise Set
Actual Time 6:19 AM EDT 6:35 PM EDT
Civil Twilight 5:49 AM EDT 7:05 PM EDT
Nautical Twilight 5:14 AM EDT 7:40 PM EDT
Astronomical Twilight 4:38 AM EDT 8:16 PM EDT
Moon 7:00 PM EDT (9/20) 7:36 AM EDT (9/20)
Length of Visible Light 13h 15m
Length of Day
12h 16m
Full, 98% of the Moon is Illuminated
Sep 20
Full
Sep 26
Last Quarter
Oct 4
New
Oct 11
First Quarter
Oct 18
Full

Hourly Weather History & Observations

Time (EDT) Temp. Dew Point Humidity Pressure Visibility Wind Dir Wind Speed Gust Speed Precip Events Conditions
12:53 AM 57.0 °F 48.9 °F 74% 30.06 in 10.0 mi WNW 3.5 mph - N/A   Scattered Clouds
1:53 AM 55.9 °F 50.0 °F 80% 30.05 in 10.0 mi Calm Calm - N/A   Scattered Clouds
2:53 AM 54.0 °F 50.0 °F 86% 30.05 in 10.0 mi Calm Calm - N/A   Clear
3:53 AM 53.1 °F 50.0 °F 89% 30.05 in 10.0 mi Calm Calm - N/A   Clear
4:53 AM 51.1 °F 48.0 °F 89% 30.06 in 10.0 mi Calm Calm - N/A   Clear
5:53 AM 48.9 °F 46.9 °F 93% 30.07 in 10.0 mi Calm Calm - N/A   Clear
6:53 AM 51.1 °F 48.9 °F 92% 30.09 in 10.0 mi Calm Calm - N/A   Overcast
7:53 AM 55.0 °F 51.1 °F 86% 30.11 in 10.0 mi Calm Calm - N/A   Overcast
8:53 AM 60.1 °F 53.1 °F 78% 30.11 in 10.0 mi Calm Calm - N/A   Overcast
9:53 AM 66.0 °F 53.1 °F 63% 30.12 in 10.0 mi Calm Calm - N/A   Partly Cloudy
10:53 AM 68.0 °F 52.0 °F 56% 30.12 in 10.0 mi Calm Calm - N/A   Mostly Cloudy
11:53 AM 69.1 °F 52.0 °F 54% 30.11 in 10.0 mi Variable 3.5 mph - N/A   Partly Cloudy
12:53 PM 71.1 °F 53.1 °F 53% 30.09 in 10.0 mi ESE 4.6 mph - N/A   Mostly Cloudy
1:53 PM 73.0 °F 55.0 °F 53% 30.07 in 10.0 mi ENE 5.8 mph - N/A   Clear
2:53 PM 73.9 °F 55.0 °F 52% 30.06 in 10.0 mi East 4.6 mph - N/A   Clear
3:53 PM 73.9 °F 55.9 °F 53% 30.05 in 10.0 mi East 5.8 mph - N/A   Clear
4:53 PM 73.9 °F 55.0 °F 52% 30.04 in 10.0 mi ESE 4.6 mph - N/A   Clear
5:53 PM 73.0 °F 59.0 °F 61% 30.05 in 10.0 mi Calm Calm - N/A   Mostly Cloudy
6:53 PM 70.0 °F 59.0 °F 68% 30.04 in 10.0 mi Calm Calm - N/A   Overcast
7:53 PM 69.1 °F 59.0 °F 70% 30.06 in 10.0 mi Calm Calm - N/A   Overcast
8:53 PM 66.9 °F 55.9 °F 68% 30.07 in 10.0 mi SSE 5.8 mph - N/A   Mostly Cloudy
9:53 PM 63.0 °F 54.0 °F 72% 30.08 in 10.0 mi SE 4.6 mph - N/A   Clear
10:53 PM 60.1 °F 53.1 °F 78% 30.07 in 10.0 mi SE 3.5 mph - N/A   Clear
11:53 PM 57.9 °F 53.1 °F 84% 30.08 in 10.0 mi SSE 3.5 mph - N/A   Clear